[[[{"header":{"parameterUnit":"kt","parameterCategory":2,"dx":1,"dy":1,"la1":30.253999710083008,"la2":30.299108505249023,"lo1":-89.0895004272461,"lo2":-89.04439544677734,"nx":28,"ny":28,"refTime":"2022-10-13T21:00:00:Z","depth":"0","parameterNumber":2,"parameterNumberName":"U-component_of_CURRENTS"},"data":[0.7102,0.6982,0.698,0.681,0.6774,0.6638,0.6611,0.6554,0.6572,0.6584,0.6725,0.6824,0.7018,0.7028,0.6953,0.6861,0.6096,0.5842,0.5528,0.6333,0.6375,0.6414,0.6297,0.5994,0.5991,0.4281,0.4266,0.4254,0.7195,0.7171,0.7094,0.7007,0.6915,0.6922,0.6861,0.6814,0.681,0.6898,0.6953,0.722,0.7418,0.7676,0.7878,0.7639,0.7322,0.7314,0.6644,0.6519,0.7738,0.7681,0.7667,0.7667,0.7667,0.7668,0.7668,0.7669,0.7356,0.7312,0.7262,0.7203,0.7127,0.7055,0.7014,0.7016,0.7013,0.7038,0.7151,0.7277,0.7564,0.7987,0.8114,0.818,0.7862,0.8035,0.7764,0.737,0.7107,0.8493,0.8591,0.8591,0.8591,0.8592,0.8592,0,0.7477,0.7478,0.7438,0.7371,0.7323,0.7262,0.7233,0.7214,0.7267,0.7305,0.734,0.7402,0.7651,0.7824,0.814,0.8255,0.7889,0.8383,0.7968,0.756,0.7136,0.6954,0.8238,0.8281,0.828,0.8278,0.8278,0.8277,0.7603,0.7582,0.7553,0.7511,0.7495,0.7448,0.7433,0.7483,0.7464,0.7518,0.7497,0.7619,0.7676,0.7896,0.8054,0.8223,0.7858,0.8339,0.8259,0.7927,0.7662,0.7242,0.7076,0.826,0.8262,0.8264,0.8265,0,0.7662,0.7685,0.7633,0.7635,0.7629,0.7593,0.7572,0.7555,0.7623,0.7588,0.7598,0.771,0.7793,0.791,0.7948,0.8025,0.7842,0.8137,0.8165,0.8186,0.7942,0.7694,0.7139,0.6932,0.828,0.8283,0.8286,0,0.7751,0.7718,0.7736,0.7713,0.767,0.7717,0.7671,0.7718,0.7742,0.7706,0.7806,0.7787,0.7836,0.7885,0.7921,0.8011,0.7944,0.8033,0.8053,0.8023,0.8034,0.7703,0.745,0.7881,0.788,0.788,0.7879,0,0.7813,0.781,0.7782,0.7782,0.7804,0.7791,0.7803,0.7844,0.7839,0.7868,0.7869,0.7865,0.7859,0.7859,0.7922,0.7894,0.7935,0.7891,0.8022,0.8033,0.8013,0.8025,0.7658,0.7878,0.7877,0.7877,0.7877,0,0.7885,0.7896,0.7865,0.7866,0.7863,0.7853,0.7872,0.7885,0.7909,0.7922,0.7911,0.7918,0.79,0.7904,0.7898,0.789,0.791,0.7915,0.7918,0.8008,0.8039,0.8119,0.813,0.7749,0.8005,0.8005,0.8005,0,0.7943,0.7937,0.7967,0.7933,0.7921,0.7969,0.7981,0.7994,0.8012,0.8001,0.799,0.7962,0.7974,0.7961,0.7936,0.7927,0.793,0.7918,0.7933,0.7936,0.8039,0.8042,0.8021,0.8126,0.8006,0.8006,0.8006,0,0.799,0.8017,0.8016,0.8009,0.8056,0.8041,0.8059,0.806,0.8056,0.8055,0.8031,0.7996,0.7994,0.7974,0.7967,0.7942,0.7942,0.7946,0.7944,0.8009,0.7926,0.8034,0.8045,0.7894,0.7892,0.7891,0.8006,0,0.8071,0.8067,0.8057,0.808,0.8089,0.8074,0.8101,0.8107,0.812,0.8119,0.8083,0.8061,0.8025,0.8022,0.8015,0.797,0.8004,0.7971,0.7979,0.7953,0.8014,0.8014,0.802,0.802,0.802,0.802,0,0,0.8122,0.8104,0.8134,0.814,0.8144,0.8176,0.8159,0.8166,0.8156,0.8145,0.8159,0.8095,0.8078,0.8031,0.8028,0.8016,0.8025,0.8023,0.797,0.7964,0.7959,0.8015,0.8014,0.802,0.802,0.802,0.802,0,0.8144,0.8153,0.8142,0.8153,0.8176,0.8185,0.8185,0.8186,0.819,0.8166,0.8158,0.8131,0.8091,0.8071,0.8055,0.8019,0.8034,0.8018,0.8008,0.7971,0.7966,0.7961,0.8015,0.8014,0.802,0.802,0.802,0,0.819,0.8211,0.8195,0.8206,0.8205,0.8201,0.822,0.8215,0.8212,0.8201,0.8178,0.8159,0.8129,0.8096,0.8079,0.8085,0.8046,0.8048,0.8047,0.8039,0.8001,0.7995,0.7989,0.806,0.806,0.8061,0,0,0.8224,0.8218,0.8228,0.8208,0.8211,0.8219,0.8221,0.823,0.8215,0.8209,0.8195,0.8171,0.8142,0.8127,0.8099,0.8063,0.8065,0.8054,0.8052,0.805,0.8042,0.8004,0.7998,0.8062,0.8062,0.8062,0,0,0.8225,0.8235,0.8245,0.8225,0.823,0.8229,0.8227,0.8237,0.8218,0.8216,0.8203,0.8196,0.8161,0.8147,0.8161,0.8111,0.8118,0.8113,0.8125,0.8122,0.812,0.8119,0.817,0,0,0,0,0,0.8253,0.8234,0.8244,0.8242,0.8231,0.8223,0.8224,0.824,0.8248,0.8243,0.8223,0.8225,0.8154,0.8166,0.8156,0.8149,0.8073,0.8071,0.8069,0.8074,0.8072,0.807,0,0,0,0,0,0,0.8252,0.8247,0.8245,0.824,0.824,0.8223,0.824,0.8243,0.8249,0.8252,0.8228,0.8224,0.8215,0.817,0.8162,0.8155,0.8173,0.8073,0.8071,0.8069,0.8073,0.8071,0.807,0,0,0,0,0,0.8252,0.8248,0.8222,0.8241,0.824,0.826,0.824,0.8243,0.8242,0.8231,0.8229,0.8258,0.8214,0.8206,0.8165,0.8159,0.8179,0.8176,0.8071,0.807,0.8069,0.8072,0,0,0,0,0,0,0.8252,0.8245,0.8223,0.8224,0.8253,0.8262,0.8261,0.8243,0.822,0.822,0.8259,0.8261,0.8214,0.8208,0.8202,0.8162,0.8183,0.818,0.8178,0.807,0.8069,0.8068,0,0,0,0,0,0,0.8248,0.8245,0.8223,0.8236,0.8239,0.8263,0.8262,0.8226,0.8218,0.8247,0.825,0.826,0.8215,0.8208,0.8204,0.8148,0.8187,0.8184,0.8182,0.8181,0.8069,0.8069,0,0,0,0,0,0,0.8247,0.8245,0.8235,0.8237,0.824,0.8253,0.823,0.8209,0.8258,0.8246,0.8261,0.8262,0.8215,0.8211,0.8205,0.8151,0.8148,0.8187,0.8185,0.8183,0.8182,0,0,0,0,0,0,0,0.8247,0.8251,0.8221,0.8238,0.8241,0.824,0.8239,0.8239,0.8258,0.8259,0.8261,0.8262,0.8204,0.8201,0.8198,0.8154,0,0,0.8187,0.8186,0,0,0,0,0,0,0,0,0.8253,0.8252,0.8221,0.8222,0.8223,0.824,0.8239,0.8239,0.8259,0.8259,0.826,0.8261,0.8203,0.8201,0.8198,0,0,0,0,0,0,0,0,0,0,0,0,0,0,0,0.8221,0.8222,0,0.824,0.8239,0.8239,0.8259,0.8259,0.826,0.8261,0.8203,0.82,0.8198,0,0,0,0,0,0,0,0,0,0,0,0,0,0,0,0,0,0,0,0,0,0,0,0,0,0,0,0,0,0,0,0,0,0,0,0,0,0,0,0,0,0,0,0,0,0,0,0,0,0,0,0,0,0,0,0,0,0,0,0,0,0,0,0,0,0,0,0,0]}],[{"header":{"parameterUnit":"kt","parameterCategory":2,"dx":1,"dy":1,"la1":30.253999710083008,"la2":30.299108505249023,"lo1":-89.0895004272461,"lo2":-89.04439544677734,"nx":28,"ny":28,"refTime":"2022-10-13T21:00:00:Z","depth":"0","parameterNumber":3,"parameterNumberName":"V-component_of_CURRENTS"},"data":[-0.4197,-0.387,-0.3768,-0.3342,-0.3194,-0.2769,-0.2469,-0.1948,-0.1453,-0.0357,0.0345,0.0761,0.1094,0.0728,0.0448,0.0114,-0.0413,-0.0479,-0.092,-0.0889,-0.0993,-0.1093,-0.102,-0.0123,-0.0124,-0.0659,-0.0663,-0.0666,-0.4418,-0.4298,-0.411,-0.3849,-0.3587,-0.3515,-0.3103,-0.2753,-0.2171,-0.1523,-0.1088,-0.0329,-0.017,-0.0328,-0.0347,-0.0649,-0.1095,-0.0905,-0.1124,-0.1283,-0.1333,-0.1234,-0.0367,-0.0368,-0.0368,-0.0368,-0.0368,-0.0368,-0.4779,-0.4647,-0.449,-0.4267,-0.4096,-0.3723,-0.3481,-0.3134,-0.2721,-0.2149,-0.2115,-0.154,-0.1379,-0.1445,-0.1725,-0.1709,-0.2229,-0.1794,-0.2048,-0.2282,-0.2283,-0.2379,-0.1815,-0.182,-0.1824,-0.1829,-0.1832,0,-0.4946,-0.4922,-0.4832,-0.4613,-0.4442,-0.4216,-0.4006,-0.3798,-0.3607,-0.3311,-0.2835,-0.2597,-0.2415,-0.2231,-0.2367,-0.256,-0.3067,-0.2941,-0.2878,-0.2677,-0.2771,-0.2845,-0.3252,-0.2778,-0.2789,-0.2797,-0.2803,-0.2808,-0.5094,-0.5057,-0.4966,-0.4854,-0.4817,-0.4678,-0.452,-0.4454,-0.4244,-0.3874,-0.3657,-0.3395,-0.3148,-0.3104,-0.3261,-0.3412,-0.3686,-0.3195,-0.3434,-0.3259,-0.3451,-0.3665,-0.3747,-0.2927,-0.2912,-0.2899,-0.2889,0,-0.5146,-0.5162,-0.5088,-0.5041,-0.5009,-0.4922,-0.4753,-0.4583,-0.451,-0.4188,-0.4114,-0.3987,-0.3856,-0.4029,-0.4102,-0.4259,-0.4186,-0.4231,-0.3811,-0.3728,-0.3445,-0.3636,-0.3399,-0.3444,-0.3939,-0.393,-0.3922,0,-0.5223,-0.5192,-0.5181,-0.5155,-0.5046,-0.5093,-0.4932,-0.4912,-0.4771,-0.4549,-0.4651,-0.4414,-0.465,-0.456,-0.4772,-0.4646,-0.4747,-0.4721,-0.4682,-0.4391,-0.4341,-0.4191,-0.4365,-0.5038,-0.504,-0.5042,-0.5044,0,-0.526,-0.5275,-0.5238,-0.524,-0.5223,-0.5187,-0.5159,-0.5107,-0.5005,-0.4919,-0.4764,-0.4865,-0.4743,-0.4895,-0.4935,-0.5073,-0.4868,-0.5064,-0.4811,-0.4789,-0.4425,-0.4372,-0.4004,-0.5047,-0.5047,-0.5048,-0.5049,0,-0.5334,-0.5336,-0.5319,-0.5295,-0.5294,-0.5275,-0.5188,-0.5173,-0.5107,-0.5079,-0.5077,-0.5075,-0.5088,-0.5205,-0.5227,-0.5279,-0.5301,-0.5306,-0.5297,-0.5022,-0.5041,-0.4468,-0.4204,-0.4073,-0.5187,-0.5189,-0.5191,0,-0.5339,-0.5354,-0.54,-0.5379,-0.5376,-0.5392,-0.5373,-0.5361,-0.5336,-0.5252,-0.5316,-0.5261,-0.5431,-0.5386,-0.5444,-0.5425,-0.541,-0.5511,-0.5376,-0.5369,-0.5105,-0.4949,-0.4561,-0.4271,-0.5219,-0.5216,-0.5214,0,-0.5355,-0.541,-0.5416,-0.5407,-0.5459,-0.5445,-0.5453,-0.5433,-0.5366,-0.5425,-0.5335,-0.5452,-0.5455,-0.5478,-0.5522,-0.5528,-0.545,-0.5558,-0.5558,-0.5438,-0.5319,-0.5024,-0.4976,-0.5503,-0.5501,-0.5499,-0.5237,0,-0.5386,-0.5406,-0.5422,-0.5457,-0.5471,-0.5472,-0.5487,-0.5478,-0.5476,-0.5471,-0.5471,-0.5527,-0.5533,-0.5569,-0.561,-0.5594,-0.5558,-0.5614,-0.5632,-0.5601,-0.5487,-0.5469,-0.569,-0.5691,-0.5691,-0.5692,0,0,-0.5381,-0.5401,-0.5443,-0.5472,-0.5473,-0.5481,-0.5481,-0.549,-0.55,-0.5488,-0.5511,-0.5539,-0.5601,-0.5612,-0.5619,-0.5656,-0.5608,-0.5671,-0.5627,-0.562,-0.5613,-0.5503,-0.5485,-0.5693,-0.5693,-0.5693,-0.5693,0,-0.5391,-0.542,-0.5442,-0.5458,-0.5482,-0.5479,-0.548,-0.5485,-0.5488,-0.5508,-0.5517,-0.5542,-0.5613,-0.5632,-0.5655,-0.5662,-0.5652,-0.5683,-0.5657,-0.5633,-0.5625,-0.5618,-0.5508,-0.5492,-0.5695,-0.5695,-0.5695,0,-0.5396,-0.542,-0.5424,-0.5452,-0.5462,-0.5468,-0.5464,-0.5474,-0.5467,-0.5506,-0.5521,-0.555,-0.5598,-0.5639,-0.5664,-0.5679,-0.5678,-0.5731,-0.5728,-0.5709,-0.5684,-0.5676,-0.5668,-0.5764,-0.5764,-0.5764,0,0,-0.541,-0.5433,-0.5441,-0.545,-0.5463,-0.5461,-0.5465,-0.5462,-0.5477,-0.5487,-0.5518,-0.5556,-0.559,-0.5627,-0.5664,-0.5721,-0.5687,-0.5738,-0.5734,-0.5732,-0.5711,-0.5686,-0.5678,-0.5764,-0.5764,-0.5764,0,0,-0.5401,-0.5422,-0.5425,-0.5442,-0.5447,-0.5446,-0.546,-0.5449,-0.5476,-0.5481,-0.5519,-0.5535,-0.5577,-0.5618,-0.5614,-0.568,-0.5694,-0.5697,-0.566,-0.5657,-0.5654,-0.5615,-0.5652,0,0,0,0,0,-0.5406,-0.5421,-0.5423,-0.5426,-0.544,-0.5447,-0.5449,-0.5449,-0.5438,-0.5449,-0.5475,-0.551,-0.5614,-0.5612,-0.5632,-0.5647,-0.5769,-0.5768,-0.5767,-0.5732,-0.5728,-0.5724,0,0,0,0,0,0,-0.5407,-0.541,-0.5423,-0.5422,-0.5425,-0.5446,-0.5435,-0.5435,-0.5438,-0.5437,-0.55,-0.5512,-0.5547,-0.5607,-0.5623,-0.5637,-0.5646,-0.5768,-0.5768,-0.5767,-0.5731,-0.5727,-0.5724,0,0,0,0,0,-0.5407,-0.5409,-0.5433,-0.5422,-0.5424,-0.5426,-0.5434,-0.5435,-0.5439,-0.5493,-0.5503,-0.5437,-0.5546,-0.5564,-0.5617,-0.5627,-0.5635,-0.5641,-0.5768,-0.5768,-0.5767,-0.5729,0,0,0,0,0,0,-0.5407,-0.5415,-0.5433,-0.5434,-0.5415,-0.5425,-0.5427,-0.5434,-0.5497,-0.5504,-0.5434,-0.5434,-0.5546,-0.556,-0.5573,-0.5621,-0.5626,-0.5632,-0.5636,-0.5768,-0.5767,-0.5767,0,0,0,0,0,0,-0.5413,-0.5416,-0.5434,-0.5426,-0.5425,-0.5424,-0.5426,-0.5491,-0.5501,-0.5437,-0.5436,-0.5434,-0.555,-0.5557,-0.5568,-0.5667,-0.5619,-0.5625,-0.5629,-0.5631,-0.5767,-0.5767,0,0,0,0,0,0,-0.5414,-0.5416,-0.5426,-0.5426,-0.5425,-0.5434,-0.5485,-0.5516,-0.544,-0.5437,-0.5438,-0.5437,-0.5549,-0.5558,-0.5564,-0.5658,-0.5665,-0.5619,-0.5623,-0.5626,-0.5628,0,0,0,0,0,0,0,-0.5415,-0.5402,-0.5426,-0.5426,-0.5425,-0.5438,-0.5439,-0.5439,-0.5439,-0.5439,-0.5438,-0.5438,-0.5586,-0.5592,-0.5598,-0.5651,0,0,-0.5619,-0.5621,0,0,0,0,0,0,0,0,-0.5401,-0.5402,-0.5426,-0.5426,-0.5426,-0.5439,-0.5439,-0.5439,-0.5439,-0.5439,-0.5438,-0.5438,-0.5587,-0.5592,-0.5598,0,0,0,0,0,0,0,0,0,0,0,0,0,0,0,-0.5426,-0.5426,0,-0.5439,-0.5439,-0.5439,-0.5439,-0.5439,-0.5438,-0.5438,-0.5589,-0.5593,-0.5597,0,0,0,0,0,0,0,0,0,0,0,0,0,0,0,0,0,0,0,0,0,0,0,0,0,0,0,0,0,0,0,0,0,0,0,0,0,0,0,0,0,0,0,0,0,0,0,0,0,0,0,0,0,0,0,0,0,0,0,0,0,0,0,0,0,0,0,0,0]}]],[[{"header":{"parameterUnit":"kt","parameterCategory":2,"dx":1,"dy":1,"la1":30.253999710083008,"la2":30.299108505249023,"lo1":-89.0895004272461,"lo2":-89.04439544677734,"nx":28,"ny":28,"refTime":"2022-10-13T21:00:00:Z","depth":"2","parameterNumber":2,"parameterNumberName":"U-component_of_CURRENTS"},"data":[0.4243,0.4256,0.4305,0.422,0.4313,0.4097,0.4057,0.383,0.3607,0.3202,0.2902,0.2944,0.3057,0.2593,0.272,0.2633,0.3053,0.2592,0.3712,0.382,0.39,0.4273,0.3981,0,0,0,0,0,0.428,0.4341,0.4488,0.4506,0.4497,0.4646,0.4633,0.447,0.4364,0.4247,0.4242,0.3676,0.3401,0.3452,0.3364,0.3453,0.353,0.3399,0.3427,0.3525,0.3612,0.3355,0.2654,0.265,0.2647,0.2643,0,0,0.4243,0.4375,0.444,0.459,0.4684,0.4666,0.4681,0.4733,0.4773,0.4797,0.5081,0.4866,0.4854,0.433,0.4282,0.4346,0.4721,0.4577,0.4615,0.4664,0.4457,0.4349,0.4049,0.4054,0.4059,0.4064,0.4068,0,0.4097,0.4191,0.4335,0.4482,0.462,0.4739,0.4946,0.4975,0.5224,0.5346,0.5523,0.5561,0.5589,0.5266,0.5126,0.5097,0.5308,0.512,0.5909,0.4996,0.4905,0.4801,0.4827,0.474,0.475,0.4758,0.4763,0.4767,0.3916,0.3995,0.4278,0.4342,0.4533,0.4812,0.4925,0.5172,0.5272,0.5625,0.5688,0.5893,0.5911,0.588,0.5819,0.5754,0.5953,0.5351,0.5278,0.5932,0.5826,0.5815,0.5804,0.4874,0.486,0.4849,0.484,0,0.3832,0.3862,0.4097,0.4383,0.4468,0.4714,0.4988,0.5142,0.5399,0.5616,0.5732,0.6006,0.6099,0.6152,0.6231,0.6172,0.6137,0.6083,0.5646,0.5493,0.5861,0.5839,0.5958,0.5949,0.5941,0.5935,0.5929,0,0.3759,0.3918,0.4101,0.4202,0.4464,0.4607,0.4908,0.5143,0.5379,0.5553,0.5808,0.5977,0.6149,0.6207,0.6233,0.6169,0.6315,0.6111,0.6013,0.5639,0.5576,0.6149,0.612,0.6392,0.6391,0.6389,0.6388,0,0.3751,0.3915,0.4043,0.411,0.4329,0.4543,0.4717,0.5004,0.5162,0.5528,0.5656,0.5949,0.6092,0.6178,0.6191,0.6185,0.6274,0.6212,0.6002,0.598,0.5599,0.5531,0.6387,0.6387,0.6387,0.6386,0.6386,0,0.3759,0.3832,0.3952,0.4178,0.4225,0.4371,0.4701,0.4862,0.5181,0.5352,0.5634,0.5755,0.6,0.5957,0.6139,0.6061,0.6081,0.6058,0.6059,0.5752,0.5521,0.5203,0.5306,0.5971,0.5968,0.5964,0.5962,0,0.3755,0.3825,0.3878,0.4043,0.4094,0.4243,0.4424,0.4625,0.4833,0.5086,0.5314,0.5551,0.5606,0.5728,0.5821,0.5796,0.5912,0.5805,0.5775,0.5778,0.545,0.5641,0.5205,0.5284,0.5921,0.5925,0.5928,0,0.3716,0.3804,0.3836,0.3942,0.402,0.4053,0.4252,0.4448,0.4645,0.4864,0.513,0.5397,0.5485,0.5575,0.5612,0.5676,0.5834,0.5591,0.5587,0.5611,0.5925,0.5621,0.5619,0.5728,0.5734,0.5738,0.5896,0,0.3813,0.3862,0.3849,0.3896,0.395,0.3985,0.4076,0.4237,0.4411,0.4526,0.4844,0.4952,0.5171,0.5216,0.5243,0.5454,0.541,0.5299,0.5188,0.5376,0.542,0.5446,0.5089,0.5086,0.5083,0.5081,0,0,0.3837,0.3814,0.3777,0.3805,0.3865,0.3907,0.3954,0.4061,0.418,0.4321,0.4354,0.4709,0.4761,0.4993,0.5092,0.5077,0.5086,0.5095,0.5289,0.5313,0.5334,0.5384,0.5412,0.5076,0.5075,0.5074,0.5074,0,0.3799,0.3797,0.3768,0.38,0.3849,0.3862,0.3897,0.3933,0.4061,0.4246,0.4306,0.4475,0.4646,0.473,0.4799,0.5019,0.4963,0.5053,0.5239,0.5263,0.529,0.5314,0.5369,0.5396,0.5067,0.5067,0.5068,0,0.3822,0.3785,0.3748,0.3722,0.3752,0.3781,0.3796,0.3837,0.3948,0.3964,0.419,0.4267,0.4359,0.4521,0.4606,0.4552,0.4834,0.4747,0.4763,0.4828,0.4848,0.4881,0.491,0.4526,0.4524,0.4523,0,0,0.3816,0.3763,0.3718,0.3697,0.3706,0.3758,0.3805,0.384,0.3899,0.3971,0.4063,0.4182,0.4299,0.4371,0.4446,0.458,0.4576,0.4681,0.4706,0.4727,0.4802,0.4829,0.4861,0.4516,0.4516,0.4515,0,0,0.378,0.3667,0.3716,0.3658,0.3687,0.3654,0.3727,0.3792,0.3934,0.3985,0.4034,0.4059,0.4244,0.425,0.4158,0.4432,0.4329,0.4348,0.4421,0.4453,0.4478,0.4547,0.4091,0,0,0,0,0,0.3688,0.3654,0.37,0.3689,0.3655,0.3626,0.3644,0.3731,0.3814,0.3873,0.3993,0.3968,0.4223,0.414,0.4154,0.4274,0.4427,0.4442,0.4457,0.4584,0.4618,0.4646,0,0,0,0,0,0,0.3682,0.3654,0.3702,0.364,0.3638,0.3625,0.3659,0.3684,0.381,0.3828,0.395,0.3966,0.3965,0.4131,0.4144,0.426,0.4087,0.4433,0.4446,0.4458,0.4596,0.4623,0.4647,0,0,0,0,0,0.3677,0.3656,0.3555,0.3649,0.3646,0.3742,0.3662,0.3684,0.3823,0.3834,0.386,0.3898,0.3961,0.3981,0.4139,0.4256,0.4077,0.4082,0.4441,0.4452,0.4462,0.4609,0,0,0,0,0,0,0.3674,0.3719,0.3561,0.357,0.3669,0.3753,0.3755,0.3683,0.3828,0.385,0.377,0.378,0.3958,0.3974,0.3988,0.4258,0.407,0.4075,0.4078,0.445,0.4458,0.4465,0,0,0,0,0,0,0.3732,0.3723,0.3566,0.3585,0.3598,0.3762,0.3763,0.3804,0.3829,0.3758,0.3769,0.3773,0.3936,0.3969,0.398,0.4043,0.4064,0.4069,0.4072,0.4074,0.4456,0.4463,0,0,0,0,0,0,0.3733,0.3726,0.3585,0.3594,0.3605,0.3715,0.3806,0.3777,0.3825,0.3752,0.3832,0.3835,0.3929,0.3943,0.3974,0.4031,0.404,0.4064,0.4067,0.407,0.4071,0,0,0,0,0,0,0,0.3734,0.372,0.35,0.3601,0.3611,0.3647,0.365,0.3653,0.3825,0.3828,0.3831,0.3834,0.4036,0.4041,0.4047,0.4022,0,0,0.4064,0.4066,0,0,0,0,0,0,0,0,0.3729,0.3722,0.35,0.3501,0.3502,0.3647,0.365,0.3653,0.3826,0.3828,0.3831,0.3833,0.4037,0.4042,0.4046,0,0,0,0,0,0,0,0,0,0,0,0,0,0,0,0.35,0.3501,0,0.3648,0.365,0.3652,0.3826,0.3828,0.383,0.3832,0.4039,0.4042,0.4046,0,0,0,0,0,0,0,0,0,0,0,0,0,0,0,0,0,0,0,0,0,0,0,0,0,0,0,0,0,0,0,0,0,0,0,0,0,0,0,0,0,0,0,0,0,0,0,0,0,0,0,0,0,0,0,0,0,0,0,0,0,0,0,0,0,0,0,0,0]}],[{"header":{"parameterUnit":"kt","parameterCategory":2,"dx":1,"dy":1,"la1":30.253999710083008,"la2":30.299108505249023,"lo1":-89.0895004272461,"lo2":-89.04439544677734,"nx":28,"ny":28,"refTime":"2022-10-13T21:00:00:Z","depth":"2","parameterNumber":3,"parameterNumberName":"V-component_of_CURRENTS"},"data":[0.3437,0.3511,0.3596,0.3621,0.368,0.3688,0.3631,0.3587,0.3544,0.3444,0.3335,0.3288,0.266,0.1908,0.1327,0.0831,0.0959,0.0717,0.1069,0.1541,0.1595,0.1337,0.1248,0,0,0,0,0,0.3492,0.3561,0.3715,0.3823,0.3832,0.3813,0.3751,0.3725,0.3726,0.3684,0.3687,0.309,0.2628,0.2091,0.1167,0.0679,0.0778,0.0536,0.0831,0.0887,0.0937,0.0839,0.0387,0.0384,0.0382,0.0379,0,0,0.3542,0.3671,0.3761,0.3878,0.392,0.3849,0.3866,0.3825,0.3792,0.3733,0.3736,0.3602,0.3148,0.2249,0.1752,0.1193,0.1309,0.1153,0.1187,0.1225,0.1128,0.1136,0.0758,0.0759,0.076,0.076,0.0761,0,0.3481,0.3554,0.373,0.3859,0.3935,0.3977,0.3996,0.3938,0.3859,0.3868,0.3796,0.375,0.3217,0.2802,0.2154,0.1873,0.1884,0.1617,0.1997,0.1802,0.184,0.1693,0.1714,0.1602,0.1607,0.1611,0.1614,0.1617,0.3285,0.3439,0.3707,0.3789,0.3896,0.4038,0.4054,0.4047,0.4007,0.391,0.3876,0.367,0.3585,0.3079,0.2596,0.2199,0.2224,0.178,0.1683,0.2048,0.1891,0.1901,0.1909,0.1677,0.1669,0.1663,0.1658,0,0.3174,0.3272,0.3545,0.3789,0.384,0.4014,0.399,0.4054,0.4039,0.3981,0.3959,0.3922,0.369,0.349,0.3131,0.2867,0.2531,0.2291,0.2339,0.2168,0.197,0.1965,0.1868,0.1856,0.1846,0.1838,0.1831,0,0.3038,0.3216,0.3396,0.3515,0.3769,0.3799,0.3966,0.4062,0.4048,0.4024,0.4039,0.3993,0.3796,0.3608,0.3366,0.2883,0.3037,0.2422,0.2249,0.224,0.2207,0.2456,0.2434,0.2648,0.2649,0.2649,0.2649,0,0.2897,0.3075,0.3284,0.3322,0.3485,0.3621,0.3681,0.3776,0.3787,0.3903,0.3851,0.3953,0.3801,0.3641,0.3238,0.3204,0.2929,0.2789,0.2305,0.2281,0.2137,0.2093,0.2649,0.2649,0.265,0.265,0.265,0,0.2745,0.2872,0.307,0.3258,0.3289,0.3358,0.355,0.3606,0.37,0.3691,0.3755,0.3653,0.3656,0.3411,0.3226,0.3217,0.2947,0.2718,0.2705,0.2312,0.2017,0.196,0.2055,0.2471,0.247,0.247,0.2469,0,0.2634,0.2796,0.2768,0.2936,0.3027,0.2986,0.3087,0.3155,0.3167,0.3263,0.3231,0.323,0.3112,0.3069,0.3028,0.2745,0.2714,0.2715,0.2337,0.2331,0.2041,0.2157,0.2115,0.2058,0.2458,0.2459,0.246,0,0.2504,0.2577,0.2579,0.2677,0.2617,0.2655,0.2735,0.2833,0.2955,0.2893,0.3053,0.2983,0.2923,0.2887,0.275,0.267,0.2684,0.2442,0.2428,0.2451,0.2507,0.2181,0.2156,0.2478,0.248,0.2482,0.2452,0,0.2443,0.2485,0.2499,0.2512,0.2504,0.2532,0.2497,0.253,0.2509,0.2506,0.2583,0.2424,0.2422,0.2366,0.2259,0.2343,0.225,0.2074,0.1963,0.2113,0.2074,0.2082,0.1902,0.1896,0.1892,0.1888,0,0,0.2327,0.2384,0.2293,0.2321,0.2334,0.2228,0.2292,0.2271,0.2192,0.2254,0.2145,0.2095,0.1957,0.2049,0.209,0.197,0.1891,0.1988,0.2032,0.2049,0.2064,0.2037,0.205,0.1879,0.1878,0.1876,0.1875,0,0.2298,0.2247,0.2284,0.2257,0.2225,0.2184,0.2194,0.2122,0.2123,0.2106,0.2004,0.1975,0.1835,0.1814,0.1781,0.1897,0.1743,0.1848,0.2099,0.1993,0.2016,0.2036,0.2016,0.2031,0.1863,0.1864,0.1864,0,0.2219,0.2192,0.2192,0.2154,0.2115,0.2126,0.2039,0.2023,0.2066,0.1864,0.1861,0.1759,0.1644,0.1633,0.161,0.1548,0.16,0.156,0.1582,0.1663,0.1548,0.1576,0.16,0.1283,0.1282,0.1281,0,0,0.2191,0.219,0.2133,0.214,0.2122,0.2056,0.2035,0.1998,0.1923,0.189,0.1783,0.1685,0.1633,0.1585,0.1495,0.1465,0.139,0.1501,0.1528,0.1552,0.1645,0.1538,0.1564,0.1278,0.1278,0.1278,0,0,0.217,0.2115,0.2098,0.2095,0.2063,0.1978,0.197,0.1936,0.1859,0.1847,0.1703,0.1666,0.1634,0.152,0.1499,0.149,0.1363,0.1363,0.1595,0.1626,0.1652,0.1795,0.137,0,0,0,0,0,0.2114,0.2127,0.2113,0.2105,0.2031,0.1995,0.198,0.1914,0.1889,0.1889,0.1789,0.1694,0.1495,0.1471,0.1435,0.1516,0.1239,0.1246,0.1253,0.1541,0.1576,0.1605,0,0,0,0,0,0,0.2111,0.2103,0.2112,0.2034,0.2017,0.1993,0.1926,0.1906,0.1887,0.1878,0.1719,0.1689,0.158,0.148,0.1449,0.1531,0.138,0.1242,0.1248,0.1253,0.1553,0.1581,0.1606,0,0,0,0,0,0.2108,0.2101,0.2007,0.2032,0.2017,0.1935,0.1925,0.1908,0.1887,0.1731,0.1702,0.1844,0.1583,0.1549,0.1461,0.155,0.14,0.1389,0.1246,0.125,0.1255,0.1567,0,0,0,0,0,0,0.2106,0.2066,0.2002,0.1993,0.203,0.1934,0.1919,0.1911,0.1737,0.1713,0.1846,0.184,0.1585,0.1558,0.1532,0.1568,0.1416,0.1405,0.1398,0.1249,0.1253,0.1256,0,0,0,0,0,0,0.207,0.206,0.1997,0.1999,0.199,0.1934,0.1921,0.1812,0.1732,0.1857,0.185,0.1845,0.1598,0.1564,0.1544,0.1377,0.1429,0.1418,0.1411,0.1406,0.1252,0.1255,0,0,0,0,0,0,0.2064,0.2055,0.2,0.1994,0.1985,0.1882,0.183,0.1738,0.1801,0.1863,0.1799,0.1798,0.1605,0.1584,0.1552,0.1395,0.1382,0.1428,0.1421,0.1416,0.1413,0,0,0,0,0,0,0,0.2059,0.2142,0.206,0.1989,0.1981,0.1919,0.1916,0.1913,0.1801,0.18,0.1799,0.1798,0.1489,0.1477,0.1466,0.141,0,0,0.143,0.1424,0,0,0,0,0,0,0,0,0.2143,0.2142,0.2059,0.2058,0.2057,0.1918,0.1916,0.1913,0.1801,0.18,0.1799,0.1799,0.1486,0.1476,0.1467,0,0,0,0,0,0,0,0,0,0,0,0,0,0,0,0.2059,0.2058,0,0.1918,0.1916,0.1914,0.18,0.18,0.1799,0.1799,0.1483,0.1475,0.1468,0,0,0,0,0,0,0,0,0,0,0,0,0,0,0,0,0,0,0,0,0,0,0,0,0,0,0,0,0,0,0,0,0,0,0,0,0,0,0,0,0,0,0,0,0,0,0,0,0,0,0,0,0,0,0,0,0,0,0,0,0,0,0,0,0,0,0,0,0]}]],[[{"header":{"parameterUnit":"kt","parameterCategory":2,"dx":1,"dy":1,"la1":30.253999710083008,"la2":30.299108505249023,"lo1":-89.0895004272461,"lo2":-89.04439544677734,"nx":28,"ny":28,"refTime":"2022-10-13T21:00:00:Z","depth":"4","parameterNumber":2,"parameterNumberName":"U-component_of_CURRENTS"},"data":[0.0731,0.0761,0.0748,0.0696,0.0727,0.0792,0.0895,0.1062,0.108,0.1319,0.137,0.1587,0.1679,0.1777,0.1785,0.1815,0.1739,0.2083,0.2078,0.203,0.2038,0.2046,0.2167,0,0,0,0,0,0.0758,0.0767,0.0808,0.0914,0.0979,0.1058,0.1225,0.1352,0.1561,0.1533,0.1674,0.172,0.1793,0.1891,0.1836,0.2025,0.2021,0.1953,0.1899,0.2035,0.2045,0.2159,0,0,0,0,0,0,0.0813,0.0846,0.0952,0.1076,0.1179,0.122,0.1357,0.1432,0.1547,0.1793,0.1803,0.1959,0.2146,0.2147,0.203,0.1987,0.2037,0.1931,0.1946,0.1956,0.2028,0.1884,0.1772,0,0,0,0,0,0.0876,0.0971,0.106,0.1198,0.1321,0.1441,0.1588,0.1624,0.1852,0.2043,0.2089,0.2134,0.2194,0.2242,0.2141,0.2044,0.2135,0.2035,0.2042,0.2208,0.2106,0.2008,0.2003,0.2081,0.2082,0.2083,0.2083,0,0.0957,0.1013,0.1229,0.13,0.1394,0.158,0.1674,0.1911,0.1993,0.222,0.2224,0.2352,0.2439,0.2274,0.235,0.2213,0.2197,0.2058,0.2235,0.2122,0.2022,0.2014,0.2005,0.2091,0.2091,0.209,0.2089,0,0.0983,0.1084,0.121,0.1401,0.1474,0.1598,0.1827,0.1925,0.2137,0.2267,0.2318,0.2495,0.2529,0.25,0.2474,0.2392,0.2292,0.2216,0.2188,0.2084,0.2026,0.2014,0.2104,0.2101,0.2099,0.2097,0.2095,0,0.1023,0.1112,0.1264,0.1328,0.1478,0.1632,0.1821,0.1966,0.2154,0.2257,0.2421,0.2491,0.2605,0.2558,0.2474,0.2378,0.2444,0.2327,0.2237,0.2313,0.2298,0.2331,0.2316,0.2473,0.2475,0.2477,0.2478,0,0.1002,0.1157,0.1261,0.1325,0.1507,0.1613,0.1729,0.1934,0.2021,0.2247,0.2324,0.2493,0.2549,0.2562,0.2448,0.2452,0.2415,0.2395,0.2238,0.2219,0.2334,0.2317,0.248,0.248,0.248,0.2481,0.2482,0,0.1022,0.1094,0.1226,0.139,0.1441,0.1544,0.176,0.1852,0.2031,0.2119,0.2293,0.2321,0.244,0.2408,0.2457,0.2419,0.234,0.2276,0.2266,0.2247,0.2042,0.1855,0.1987,0.1985,0.1983,0.1981,0.198,0,0.0962,0.108,0.1161,0.1306,0.1384,0.1496,0.1587,0.1716,0.1818,0.1933,0.2029,0.213,0.2128,0.2165,0.2245,0.2183,0.2205,0.2188,0.2089,0.2086,0.1973,0.2099,0.216,0.1955,0.1958,0.1961,0.1962,0,0.092,0.106,0.1085,0.1154,0.1301,0.1368,0.1476,0.1595,0.1688,0.1772,0.1888,0.1996,0.2049,0.2089,0.2052,0.2106,0.2142,0.2016,0.2018,0.1882,0.2146,0.2066,0.207,0.2128,0.2134,0.2139,0.1945,0,0.0935,0.1008,0.1052,0.1158,0.1233,0.1316,0.1386,0.1451,0.1499,0.1543,0.1684,0.172,0.1832,0.1811,0.1784,0.1925,0.1806,0.1806,0.1757,0.188,0.176,0.1774,0.1609,0.1609,0.1608,0.1608,0,0,0.0867,0.0945,0.0994,0.1065,0.1132,0.1182,0.1258,0.1282,0.1349,0.1402,0.1385,0.1535,0.1549,0.1651,0.1686,0.1665,0.1621,0.165,0.1811,0.1833,0.1853,0.1749,0.1762,0.1607,0.1607,0.1607,0.1607,0,0.0866,0.0925,0.0972,0.103,0.1123,0.1149,0.1183,0.1235,0.1251,0.1336,0.132,0.1411,0.1449,0.1491,0.1512,0.1637,0.1561,0.1613,0.1736,0.1802,0.1824,0.1844,0.1745,0.1757,0.1606,0.1606,0.1606,0,0.0835,0.0885,0.0912,0.0992,0.1031,0.1092,0.1066,0.1139,0.1181,0.1155,0.122,0.1244,0.1278,0.1347,0.1388,0.136,0.1497,0.1455,0.1461,0.1561,0.1631,0.1657,0.168,0.1379,0.1378,0.1377,0,0,0.0829,0.0878,0.0937,0.0992,0.1026,0.1053,0.1078,0.11,0.1133,0.1146,0.1159,0.1201,0.1244,0.1269,0.1316,0.1378,0.1391,0.1423,0.1433,0.1442,0.1544,0.1618,0.1643,0.1372,0.1372,0.1372,0,0,0.0814,0.0882,0.0905,0.0964,0.1015,0.1032,0.1066,0.1069,0.1101,0.1121,0.1104,0.1112,0.12,0.1213,0.1152,0.1289,0.1254,0.1266,0.1245,0.1259,0.127,0.1376,0.1098,0,0,0,0,0,0.084,0.0878,0.0899,0.0917,0.0978,0.103,0.1034,0.1044,0.1037,0.1061,0.1085,0.106,0.119,0.1134,0.1142,0.1179,0.1312,0.1323,0.1333,0.1324,0.1339,0.1351,0,0,0,0,0,0,0.0847,0.0867,0.0898,0.0921,0.0937,0.1026,0.0992,0.0992,0.1035,0.1035,0.1055,0.1059,0.1046,0.1128,0.1136,0.1172,0.1096,0.1316,0.1325,0.1333,0.1329,0.1341,0.1351,0,0,0,0,0,0.0853,0.0869,0.0974,0.0919,0.0932,0.0961,0.099,0.0991,0.1015,0.1029,0.1033,0.1031,0.1046,0.1054,0.1133,0.1169,0.1091,0.1093,0.1322,0.1329,0.1336,0.1335,0,0,0,0,0,0,0.0857,0.0838,0.0975,0.0979,0.0921,0.0956,0.0963,0.099,0.1006,0.1012,0.1003,0.1002,0.1045,0.1052,0.1059,0.1169,0.1087,0.1089,0.1091,0.1327,0.1333,0.1338,0,0,0,0,0,0,0.0831,0.084,0.0976,0.0979,0.0982,0.0951,0.0958,0.0989,0.1007,0.0976,0.0977,0.1003,0.1061,0.1051,0.1056,0.11,0.1083,0.1086,0.1088,0.1089,0.1332,0.1336,0,0,0,0,0,0,0.0834,0.0843,0.0976,0.0979,0.0981,0.101,0.0977,0.1046,0.0992,0.0974,0.0992,0.0992,0.1061,0.1065,0.1054,0.1095,0.1098,0.1083,0.1085,0.1087,0.1087,0,0,0,0,0,0,0,0.0837,0.0787,0.0972,0.0979,0.0981,0.1016,0.1015,0.1014,0.0992,0.0992,0.0992,0.0992,0.1068,0.1071,0.1074,0.1092,0,0,0.1083,0.1084,0,0,0,0,0,0,0,0,0.0783,0.0786,0.0972,0.0974,0.0976,0.1016,0.1015,0.1015,0.0992,0.0992,0.0992,0.0992,0.1069,0.1071,0.1074,0,0,0,0,0,0,0,0,0,0,0,0,0,0,0,0.0973,0.0974,0,0.1016,0.1015,0.1015,0.0992,0.0992,0.0992,0.0992,0.1069,0.1071,0.1073,0,0,0,0,0,0,0,0,0,0,0,0,0,0,0,0,0,0,0,0,0,0,0,0,0,0,0,0,0,0,0,0,0,0,0,0,0,0,0,0,0,0,0,0,0,0,0,0,0,0,0,0,0,0,0,0,0,0,0,0,0,0,0,0,0,0,0,0,0]}],[{"header":{"parameterUnit":"kt","parameterCategory":2,"dx":1,"dy":1,"la1":30.253999710083008,"la2":30.299108505249023,"lo1":-89.0895004272461,"lo2":-89.04439544677734,"nx":28,"ny":28,"refTime":"2022-10-13T21:00:00:Z","depth":"4","parameterNumber":3,"parameterNumberName":"V-component_of_CURRENTS"},"data":[0.1324,0.1417,0.1482,0.1741,0.1922,0.2132,0.2205,0.2192,0.2135,0.2065,0.1813,0.1694,0.1229,0.1463,0.0771,0.0675,0.0481,0.0054,0.0048,-0.0252,-0.0255,-0.0257,-0.003,0,0,0,0,0,0.1325,0.1411,0.1514,0.1734,0.1917,0.2049,0.2129,0.2144,0.2126,0.2041,0.1997,0.1722,0.1257,0.1027,0.0747,0.0611,0.0172,0.0271,0.0024,-0.0254,-0.0256,-0.0035,0,0,0,0,0,0,0.1358,0.1409,0.1545,0.1708,0.187,0.2026,0.2056,0.2071,0.2083,0.1969,0.1924,0.1586,0.1415,0.0957,0.0575,0.0268,0.0233,0.0115,0.0093,0.0086,0.0315,0.0457,0.0368,0,0,0,0,0,0.1381,0.1489,0.1539,0.1722,0.1831,0.1946,0.2025,0.2036,0.2026,0.1983,0.1831,0.1549,0.1271,0.0861,0.0498,0.0134,-0.0179,-0.0259,-0.0261,-0.0137,-0.0073,-0.0104,-0.0086,-0.0267,-0.0267,-0.0267,-0.0267,0,0.1439,0.1487,0.1627,0.1701,0.1745,0.1832,0.1873,0.1874,0.1887,0.1784,0.1757,0.1516,0.1335,0.0788,0.0456,-0.0051,-0.0066,-0.0266,-0.0133,-0.0074,-0.011,-0.009,-0.0071,-0.027,-0.0269,-0.0269,-0.0269,0,0.1463,0.1515,0.1577,0.1624,0.1652,0.1701,0.1766,0.176,0.172,0.1692,0.1662,0.1433,0.1154,0.0795,0.0399,0.0233,-0.0087,-0.0152,-0.0081,-0.0128,-0.0087,-0.0067,-0.0273,-0.0272,-0.0272,-0.0271,-0.0271,0,0.1466,0.1498,0.1563,0.1582,0.1627,0.1609,0.164,0.1579,0.1529,0.1509,0.1331,0.1265,0.0969,0.0717,0.0465,0.0204,0.0129,0.0083,0.0027,0.0101,0.0118,0.0079,0.0096,-0.0043,-0.004,-0.0038,-0.0036,0,0.1454,0.1478,0.1526,0.153,0.1513,0.1524,0.1517,0.1423,0.1398,0.1276,0.1249,0.1038,0.099,0.0742,0.0495,0.0524,0.0156,0.0156,0.0089,0.009,0.0099,0.0112,-0.0033,-0.0033,-0.0032,-0.0032,-0.0031,0,0.1424,0.1442,0.1487,0.1475,0.1473,0.1486,0.1423,0.1385,0.1249,0.1211,0.1123,0.1026,0.0868,0.0878,0.0575,0.0658,0.052,0.0388,0.0373,0.0453,0.0422,0.0291,0.018,0.0183,0.0186,0.0189,0.0192,0,0.1394,0.1426,0.1417,0.1437,0.1438,0.139,0.1348,0.128,0.1219,0.1142,0.1027,0.0964,0.0934,0.0912,0.0808,0.0639,0.0533,0.0665,0.0381,0.0373,0.0463,0.0382,0.0539,0.0233,0.0228,0.0224,0.0222,0,0.1357,0.1367,0.1376,0.1384,0.1366,0.1354,0.1307,0.1235,0.12,0.1136,0.1074,0.0964,0.0944,0.0893,0.0821,0.0724,0.0585,0.0694,0.0689,0.0581,0.0329,0.0418,0.0401,0.0553,0.055,0.0548,0.025,0,0.1313,0.1331,0.1343,0.134,0.1328,0.1334,0.1273,0.1239,0.1219,0.1165,0.1079,0.1007,0.0936,0.0884,0.0849,0.074,0.0702,0.0697,0.0697,0.0655,0.0527,0.0505,0.0772,0.0772,0.0772,0.0772,0,0,0.1275,0.1293,0.1275,0.1281,0.128,0.1247,0.1253,0.1204,0.1161,0.1124,0.1141,0.1006,0.0959,0.0842,0.0829,0.0797,0.0724,0.0809,0.0684,0.0675,0.0666,0.0543,0.0521,0.0772,0.0772,0.0772,0.0772,0,0.125,0.1255,0.1275,0.1259,0.1254,0.1222,0.123,0.1194,0.1168,0.1136,0.1086,0.1035,0.0964,0.089,0.0844,0.0803,0.074,0.0781,0.0791,0.0687,0.0678,0.0669,0.0547,0.0527,0.0773,0.0773,0.0773,0,0.1209,0.1209,0.122,0.1203,0.1193,0.1178,0.1157,0.116,0.1138,0.11,0.1072,0.1026,0.0954,0.0893,0.0871,0.0872,0.0745,0.081,0.0809,0.0834,0.0727,0.0717,0.0707,0.0827,0.0828,0.0828,0,0,0.1189,0.1208,0.1174,0.1194,0.1186,0.1159,0.1151,0.1142,0.1113,0.1104,0.1069,0.1027,0.0966,0.0943,0.0898,0.0848,0.0796,0.0819,0.0816,0.0814,0.0837,0.0731,0.0721,0.0829,0.0829,0.0829,0,0,0.1175,0.1163,0.1167,0.1177,0.1157,0.1113,0.1121,0.1107,0.1079,0.1096,0.1046,0.1035,0.0994,0.0967,0.0989,0.0889,0.0898,0.0893,0.0907,0.0903,0.09,0.094,0.0964,0,0,0,0,0,0.1152,0.1165,0.1169,0.1169,0.1144,0.1113,0.1106,0.1092,0.1103,0.1099,0.107,0.1057,0.096,0.0979,0.0967,0.0937,0.0846,0.0843,0.084,0.0847,0.0843,0.084,0,0,0,0,0,0,0.1152,0.1152,0.1168,0.113,0.1124,0.1113,0.1105,0.1099,0.1103,0.1104,0.1061,0.1054,0.1017,0.0983,0.0973,0.0944,0.0968,0.0845,0.0842,0.084,0.0845,0.0843,0.084,0,0,0,0,0,0.1152,0.1152,0.1127,0.1128,0.1123,0.1103,0.1106,0.1101,0.1103,0.1054,0.1048,0.11,0.1017,0.1008,0.0976,0.0949,0.0974,0.0971,0.0843,0.0841,0.0839,0.0844,0,0,0,0,0,0,0.1152,0.1129,0.1125,0.1121,0.1142,0.1103,0.11,0.1103,0.1053,0.1048,0.1089,0.1089,0.1016,0.1009,0.1002,0.0952,0.098,0.0976,0.0974,0.0841,0.084,0.0839,0,0,0,0,0,0,0.1129,0.1126,0.1122,0.1141,0.114,0.1103,0.1101,0.106,0.1052,0.1088,0.1088,0.109,0.1033,0.101,0.1005,0.094,0.0984,0.0981,0.0978,0.0977,0.084,0.0839,0,0,0,0,0,0,0.1127,0.1124,0.1142,0.114,0.1139,0.1094,0.1065,0.1042,0.107,0.109,0.1073,0.1074,0.1035,0.1028,0.1006,0.0944,0.0941,0.0984,0.0982,0.098,0.0979,0,0,0,0,0,0,0,0.1125,0.1156,0.1152,0.114,0.1138,0.1091,0.109,0.1088,0.107,0.1071,0.1072,0.1074,0.1004,0.1,0.0996,0.0947,0,0,0.0984,0.0983,0,0,0,0,0,0,0,0,0.1156,0.1156,0.1152,0.1152,0.1152,0.1091,0.109,0.1088,0.107,0.1071,0.1072,0.1073,0.1003,0.1,0.0997,0,0,0,0,0,0,0,0,0,0,0,0,0,0,0,0.1152,0.1152,0,0.1091,0.109,0.1089,0.107,0.1071,0.1072,0.1073,0.1002,0.1,0.0997,0,0,0,0,0,0,0,0,0,0,0,0,0,0,0,0,0,0,0,0,0,0,0,0,0,0,0,0,0,0,0,0,0,0,0,0,0,0,0,0,0,0,0,0,0,0,0,0,0,0,0,0,0,0,0,0,0,0,0,0,0,0,0,0,0,0,0,0,0]}]]]